Voltar ao catálogo

IRIDIUM 104

AtivoComunicaçõesPO
NORAD 41922·PAYLOAD·🇺🇸 United States

Lançado Jan 14, 2017 de Vandenberg Space Force Base

Loading…

Próximas Passagens (próximas 24 horas)

TLE

AtualizadoSource: CelesTrak SupGP

Época: Sep 15, 2026, 00:41 UTC

1 41922C 17003F   26258.02881944 -.00001588  00000+0 -56771-3 0  2588
2 41922  86.3949  50.8891 0002413  96.1062  43.6969 14.34221592    15

Acompanhe IRIDIUM 104 em tempo real com AllMySat

Download on the App Store